SQ9NFI-4 Weather Reports


Display with metric or nautical units.
time (UTC)temp
F
wind
direction
speed
MPH
gust
MPH
rain 1hr
in
rain 24hr
in
rain mn
in
humidity
%
barometer
mb
20260904030403 63 329 1.0 2.0 0.00 0.00 0.00 80 1017.3
20260904025903 63 316 2.0 2.0 0.00 0.00 0.00 79 1017.3
20260904025403 64 296 1.0 1.0 0.00 0.00 0.00 79 1017.3
20260904024903 64 317 2.0 4.0 0.00 0.00 0.00 79 1017.3
20260904024403 64 289 0.0 1.0 0.00 0.00 0.00 79 1017.3
20260904023903 64 292 3.0 3.0 0.00 0.00 0.00 78 1017.3
20260904023403 64 321 3.0 3.0 0.00 0.00 0.00 78 1017.3
20260904022903 64 318 3.0 3.0 0.00 0.00 0.00 79 1017.3
20260904022403 64 320 1.0 2.0 0.00 0.00 0.00 79 1017.3
20260904021903 64 327 1.0 2.0 0.00 0.00 0.00 79 1017.3
20260904021403 64 309 4.0 6.0 0.00 0.00 0.00 77 1016.9
20260904020903 64 313 1.0 3.0 0.00 0.00 0.00 78 1016.9
20260904020403 64 325 1.0 1.0 0.00 0.00 0.00 78 1016.9
20260904015903 64 286 4.0 4.0 0.00 0.00 0.00 78 1017.3
20260904015403 63 316 2.0 2.0 0.00 0.00 0.00 79 1017.3
20260904014903 63 317 0.0 1.0 0.00 0.00 0.00 80 1017.3
20260904014403 63 317 1.0 1.0 0.00 0.00 0.00 81 1017.3
20260904013903 63 318 0.0 1.0 0.00 0.00 0.00 80 1017.3
20260904013403 63 292 3.0 4.0 0.00 0.00 0.00 79 1016.9
20260904012903 63 315 3.0 4.0 0.00 0.00 0.00 81 1016.9
20260904012403 63 316 1.0 1.0 0.00 0.00 0.00 80 1017.3
20260904011903 62 328 1.0 1.0 0.00 0.00 0.00 81 1017.3
20260904011403 62 321 0.0 0.0 0.00 0.00 0.00 81 1017.3
20260904010903 63 316 1.0 1.0 0.00 0.00 0.00 80 1017.3
20260904010403 63 314 0.0 1.0 0.00 0.00 0.00 80 1017.3
20260904005903 63 321 0.0 0.0 0.00 0.00 0.00 81 1017.3
20260904005403 63 313 2.0 2.0 0.00 0.00 0.00 80 1017.3
20260904004903 62 311 0.0 1.0 0.00 0.00 0.00 82 1017.3
20260904004403 63 326 1.0 1.0 0.00 0.00 0.00 80 1017.3
20260904003903 62 319 0.0 1.0 0.00 0.00 0.00 85 1017.3
20260904003403 62 327 0.0 0.0 0.00 0.00 0.00 87 1017.3
20260904002903 62 331 0.0 0.0 0.00 0.00 0.00 83 1017.3
20260904002403 62 324 0.0 0.0 0.00 0.00 0.00 80 1017.3
20260904001903 62 286 1.0 1.0 0.00 0.00 0.00 81 1017.3
20260904001403 62 322 0.0 0.0 0.00 0.00 0.00 83 1017.3
20260904000903 62 321 1.0 1.0 0.00 0.00 0.00 83 1017.3
20260904000403 62 318 0.0 1.0 0.00 0.00 0.00 84 1017.3
20260903235903 62 323 0.0 0.0 0.00 0.00 0.00 82 1017.3
20260903235403 62 317 0.0 0.0 0.00 0.00 0.00 81 1017.3
20260903234903 62 322 0.0 0.0 0.00 0.00 0.00 82 1017.3
20260903234403 62 319 0.0 0.0 0.00 0.00 0.00 83 1017.3
20260903233903 62 330 1.0 1.0 0.00 0.00 0.00 82 1017.3
20260903233403 63 329 0.0 1.0 0.00 0.00 0.00 78 1017.3
20260903232903 62 306 0.0 1.0 0.00 0.00 0.00 82 1017.3
20260903232403 60 334 0.0 0.0 0.00 0.00 0.00 85 1017.3
20260903231903 60 297 2.0 5.0 0.00 0.00 0.00 88 1017.3
20260903231403 60 325 0.0 0.0 0.00 0.00 0.00 90 1017.3
20260903230903 60 335 0.0 0.0 0.00 0.00 0.00 91 1017.3
20260903230403 59 330 0.0 0.0 0.00 0.00 0.00 93 1017.3
20260903225903 59 338 1.0 1.0 0.00 0.00 0.00 96 1017.6
20260903225403 58 337 1.0 1.0 0.00 0.00 0.00 98 1017.6
20260903224903 58 337 0.0 0.0 0.00 0.00 0.00 98 1017.3
20260903224403 58 340 0.0 0.0 0.00 0.00 0.00 99 1017.3
20260903223903 58 337 0.0 0.0 0.00 0.00 0.00 99 1017.3
20260903223403 58 333 0.0 0.0 0.00 0.00 0.00 99 1017.3
20260903222903 57 337 0.0 0.0 0.00 0.00 0.00 99 1017.3
20260903222403 57 336 0.0 0.0 0.00 0.00 0.00 99 1017.6
20260903221903 57 335 0.0 0.0 0.00 0.00 0.00 99 1017.6
20260903221403 57 335 0.0 0.0 0.00 0.00 0.00 99 1017.6
20260903220903 56 337 0.0 1.0 0.00 0.00 0.00 99 1017.6
20260903220403 56 334 0.0 0.0 0.00 0.00 0.00 99 1017.6
20260903215903 56 333 0.0 0.0 0.00 0.00 0.00 99 1017.6
20260903215404 56 335 1.0 1.0 0.00 0.00 0.00 99 1017.6
20260903214903 56 333 0.0 0.0 0.00 0.00 0.00 99 1017.6
20260903214403 55 334 0.0 0.0 0.00 0.00 0.00 99 1017.6
20260903213903 55 327 1.0 1.0 0.00 0.00 0.00 99 1017.6
20260903213403 55 336 0.0 0.0 0.00 0.00 0.00 99 1017.6
20260903212903 55 336 0.0 0.0 0.00 0.00 0.00 99 1017.6
20260903212403 55 327 0.0 0.0 0.00 0.00 0.00 99 1017.6
20260903211903 55 328 0.0 0.0 0.00 0.00 0.00 99 1017.6
20260903211403 54 332 0.0 0.0 0.00 0.00 0.00 99 1017.6
20260903210903 55 331 0.0 1.0 0.00 0.00 0.00 99 1017.6
20260903210403 55 327 0.0 0.0 0.00 0.00 0.00 99 1017.6
20260903205903 55 329 0.0 0.0 0.00 0.00 0.00 99 1018.0
20260903205403 55 328 0.0 0.0 0.00 0.00 0.00 99 1018.0
20260903204903 55 327 0.0 0.0 0.00 0.00 0.00 99 1017.6
20260903204403 56 338 0.0 0.0 0.00 0.00 0.00 99 1017.6
20260903203903 56 337 0.0 0.0 0.00 0.00 0.00 99 1017.6
20260903203403 56 337 0.0 0.0 0.00 0.00 0.00 99 1018.0
20260903202903 56 338 0.0 0.0 0.00 0.00 0.00 99 1018.0
20260903202403 56 337 0.0 0.0 0.00 0.00 0.00 99 1018.0
20260903201903 55 337 0.0 0.0 0.00 0.00 0.00 99 1018.0
20260903201403 56 337 0.0 0.0 0.00 0.00 0.00 99 1018.0
20260903200903 56 337 0.0 0.0 0.00 0.00 0.00 99 1018.0
20260903200403 56 337 0.0 0.0 0.00 0.00 0.00 99 1018.0
20260903195903 56 337 0.0 0.0 0.00 0.00 0.00 99 1018.0
20260903195403 56 337 0.0 0.0 0.00 0.00 0.00 99 1018.0
20260903194903 56 336 0.0 0.0 0.00 0.00 0.00 99 1018.0
20260903194403 56 336 0.0 0.0 0.00 0.00 0.00 99 1018.0
20260903193903 56 336 0.0 0.0 0.00 0.00 0.00 99 1018.0
20260903193403 56 336 0.0 0.0 0.00 0.00 0.00 99 1018.0
20260903192903 56 336 0.0 0.0 0.00 0.00 0.00 99 1018.0
20260903192403 56 336 0.0 0.0 0.00 0.00 0.00 99 1018.0
20260903191903 56 336 0.0 0.0 0.00 0.00 0.00 99 1018.0
20260903191403 56 336 0.0 0.0 0.00 0.00 0.00 99 1018.0
20260903190903 56 336 0.0 0.0 0.00 0.00 0.00 99 1018.0
20260903190403 56 336 0.0 0.0 0.00 0.00 0.00 99 1018.0
20260903185903 56 335 0.0 0.0 0.00 0.00 0.00 99 1018.3
20260903185403 57 335 0.0 0.0 0.00 0.00 0.00 99 1018.3
20260903184903 57 336 0.0 0.0 0.00 0.00 0.00 99 1018.3
20260903184403 57 336 0.0 0.0 0.00 0.00 0.00 99 1018.3
20260903183903 57 336 0.0 0.0 0.00 0.00 0.00 99 1018.3
20260903183403 58 336 0.0 0.0 0.00 0.00 0.00 99 1018.0
20260903182903 58 336 0.0 0.0 0.00 0.00 0.00 99 1018.0
20260903182403 58 336 0.0 0.0 0.00 0.00 0.00 99 1018.0
20260903181903 58 335 0.0 0.0 0.00 0.00 0.00 98 1018.0
20260903181403 58 336 0.0 0.0 0.00 0.00 0.00 98 1018.3
20260903180903 58 330 1.0 1.0 0.00 0.00 0.00 98 1018.3
20260903180403 58 326 0.0 0.0 0.00 0.00 0.00 97 1018.3
20260903175903 58 326 0.0 0.0 0.00 0.00 0.00 95 1018.0
20260903175403 59 326 0.0 0.0 0.00 0.00 0.00 95 1018.0
20260903174903 60 326 0.0 0.0 0.00 0.00 0.00 94 1018.0
20260903174403 60 326 0.0 0.0 0.00 0.00 0.00 93 1018.0
20260903173903 60 326 0.0 0.0 0.00 0.00 0.00 91 1018.0
20260903173403 61 326 0.0 0.0 0.00 0.00 0.00 91 1018.0
20260903172903 62 326 0.0 0.0 0.00 0.00 0.00 91 1018.0
20260903172403 63 321 0.0 0.0 0.00 0.00 0.00 85 1018.0
20260903171903 64 321 0.0 0.0 0.00 0.00 0.00 84 1018.0
20260903171403 64 320 0.0 0.0 0.00 0.00 0.00 83 1018.0
20260903170903 65 321 0.0 0.0 0.00 0.00 0.00 83 1018.0
20260903170403 65 322 0.0 0.0 0.00 0.00 0.00 80 1018.0
20260903165903 67 315 0.0 1.0 0.00 0.00 0.00 79 1018.0
20260903165403 68 323 0.0 0.0 0.00 0.00 0.00 78 1018.0
20260903164903 68 320 0.0 0.0 0.00 0.00 0.00 77 1018.0
20260903164403 69 320 0.0 0.0 0.00 0.00 0.00 77 1018.0
20260903163903 69 320 0.0 0.0 0.00 0.00 0.00 73 1018.0
20260903163403 70 320 0.0 0.0 0.00 0.00 0.00 73 1018.0
20260903162903 70 320 0.0 0.0 0.00 0.00 0.00 70 1018.0
20260903162403 71 321 0.0 1.0 0.00 0.00 0.00 66 1018.0
20260903161903 71 275 1.0 1.0 0.00 0.00 0.00 62 1018.0
20260903161403 71 303 4.0 5.0 0.00 0.00 0.00 62 1018.0
20260903160903 71 326 3.0 3.0 0.00 0.00 0.00 61 1018.0
20260903160403 72 315 1.0 2.0 0.00 0.00 0.00 60 1018.0
20260903155903 72 315 1.0 1.0 0.00 0.00 0.00 59 1018.0
20260903155403 73 318 2.0 3.0 0.00 0.00 0.00 57 1018.0
20260903154903 73 308 3.0 3.0 0.00 0.00 0.00 56 1018.0
20260903154403 73 341 2.0 2.0 0.00 0.00 0.00 57 1018.0
20260903153903 73 290 3.0 3.0 0.00 0.00 0.00 55 1018.0
20260903153403 73 320 8.0 10.0 0.00 0.00 0.00 54 1018.0
20260903152903 73 329 6.0 7.0 0.00 0.00 0.00 55 1018.0
20260903152403 73 322 5.0 7.0 0.00 0.00 0.00 55 1018.0
20260903151903 73 325 4.0 6.0 0.00 0.00 0.00 56 1018.0
20260903151403 73 345 8.0 11.0 0.00 0.00 0.00 56 1018.0
20260903150903 72 342 5.0 6.0 0.00 0.00 0.00 58 1018.0
20260903150403 71 309 2.0 3.0 0.00 0.00 0.00 59 1018.0
20260903145903 71 315 2.0 2.0 0.00 0.00 0.00 60 1018.0
20260903145403 71 315 2.0 2.0 0.00 0.00 0.00 59 1018.0
20260903144903 71 310 3.0 3.0 0.00 0.00 0.00 58 1018.0
20260903144403 72 310 2.0 3.0 0.00 0.00 0.00 57 1018.0
20260903143903 72 307 3.0 4.0 0.00 0.00 0.00 56 1018.0
20260903143403 73 301 3.0 5.0 0.00 0.00 0.00 56 1018.0
20260903142903 73 273 7.0 9.0 0.00 0.00 0.00 54 1018.0
20260903142403 74 298 2.0 2.0 0.00 0.00 0.00 54 1018.0
20260903141903 74 283 3.0 5.0 0.00 0.00 0.00 54 1018.0
20260903141403 75 262 7.0 10.0 0.00 0.00 0.00 53 1018.0
20260903140903 76 316 4.0 7.0 0.00 0.00 0.00 53 1018.0
20260903140403 75 306 3.0 4.0 0.00 0.00 0.00 55 1018.0
20260903135903 74 294 3.0 5.0 0.00 0.00 0.00 55 1018.0
20260903135403 74 333 4.0 4.0 0.00 0.00 0.00 55 1018.0
20260903134903 74 327 6.0 6.0 0.00 0.00 0.00 55 1018.0
20260903134403 74 278 5.0 6.0 0.00 0.00 0.00 55 1018.0
20260903133903 75 321 3.0 4.0 0.00 0.00 0.00 55 1018.0
20260903133403 76 323 2.0 3.0 0.00 0.00 0.00 62 1018.3
20260903132903 76 297 1.0 2.0 0.00 0.00 0.00 56 1018.3
20260903132403 75 306 4.0 5.0 0.00 0.00 0.00 57 1018.3
20260903131903 74 298 3.0 3.0 0.00 0.00 0.00 57 1018.3
20260903131403 75 196 1.0 1.0 0.00 0.00 0.00 55 1018.3
20260903130903 74 320 1.0 1.0 0.00 0.00 0.00 59 1018.3
20260903130403 74 278 6.0 8.0 0.00 0.00 0.00 58 1018.3
20260903125903 74 331 2.0 4.0 0.00 0.00 0.00 55 1019.0
20260903125403 74 326 5.0 6.0 0.00 0.00 0.00 56 1019.0
20260903124903 74 311 2.0 3.0 0.00 0.00 0.00 56 1019.0
20260903124403 74 336 3.0 3.0 0.00 0.00 0.00 57 1019.0
20260903123903 75 320 0.0 1.0 0.00 0.00 0.00 56 1019.0
20260903123403 75 334 4.0 6.0 0.00 0.00 0.00 54 1019.0
20260903122903 75 330 2.0 2.0 0.00 0.00 0.00 57 1019.0
20260903122403 74 308 6.0 8.0 0.00 0.00 0.00 59 1019.0
20260903121903 72 318 4.0 5.0 0.00 0.00 0.00 60 1019.0
20260903121403 72 333 2.0 2.0 0.00 0.00 0.00 61 1019.3
20260903120903 73 324 1.0 1.0 0.00 0.00 0.00 58 1019.3
20260903120403 73 304 3.0 3.0 0.00 0.00 0.00 58 1019.3
20260903115903 73 326 1.0 1.0 0.00 0.00 0.00 59 1019.3
20260903115403 73 325 7.0 10.0 0.00 0.00 0.00 59 1019.3
20260903114903 74 315 7.0 7.0 0.00 0.00 0.00 57 1019.3
20260903114403 74 19 4.0 4.0 0.00 0.00 0.00 57 1019.3
20260903113903 74 327 6.0 8.0 0.00 0.00 0.00 57 1019.3
20260903113403 73 321 3.0 5.0 0.00 0.00 0.00 60 1019.3
20260903112903 73 323 2.0 2.0 0.00 0.00 0.00 57 1019.3
20260903112403 74 321 0.0 3.0 0.00 0.00 0.00 58 1019.6
20260903111903 73 320 6.0 9.0 0.00 0.00 0.00 58 1019.6
20260903111402 74 337 2.0 3.0 0.00 0.00 0.00 59 1019.6
20260903110903 73 320 1.0 2.0 0.00 0.00 0.00 62 1019.6
20260903110403 73 333 3.0 4.0 0.00 0.00 0.00 65 1019.6
20260903105903 72 314 2.0 2.0 0.00 0.00 0.00 63 1019.6
20260903105403 71 331 3.0 3.0 0.00 0.00 0.00 63 1019.6
20260903104903 71 331 3.0 6.0 0.00 0.00 0.00 63 1019.6
20260903104403 71 335 4.0 4.0 0.00 0.00 0.00 63 1019.6
20260903103903 71 320 4.0 9.0 0.00 0.00 0.00 63 1019.6
20260903103403 72 330 4.0 7.0 0.00 0.00 0.00 62 1019.6
20260903102903 73 320 3.0 6.0 0.00 0.00 0.00 63 1019.6
20260903102403 74 338 4.0 4.0 0.00 0.00 0.00 58 1020.0
20260903101903 73 302 2.0 3.0 0.00 0.00 0.00 58 1020.0
20260903101403 73 233 3.0 4.0 0.00 0.00 0.00 56 1020.0
20260903100903 74 226 4.0 7.0 0.00 0.00 0.00 56 1020.0
20260903100403 74 305 2.0 2.0 0.00 0.00 0.00 56 1020.0
20260903095903 75 329 11.0 11.0 0.00 0.00 0.00 56 1020.0
20260903095403 74 315 7.0 9.0 0.00 0.00 0.00 56 1020.0
20260903094903 75 318 3.0 6.0 0.00 0.00 0.00 55 1020.0
20260903094403 74 323 3.0 4.0 0.00 0.00 0.00 55 1020.0
20260903093902 74 307 6.0 8.0 0.00 0.00 0.00 55 1020.0
20260903093403 76 270 2.0 6.0 0.00 0.00 0.00 54 1020.0
20260903092903 76 297 5.0 5.0 0.00 0.00 0.00 54 1020.0
20260903092403 74 314 7.0 9.0 0.00 0.00 0.00 54 1020.0
20260903091903 76 273 5.0 5.0 0.00 0.00 0.00 53 1020.0
20260903091403 76 250 5.0 5.0 0.00 0.00 0.00 52 1020.0
20260903090902 74 211 3.0 6.0 0.00 0.00 0.00 58 1020.0
20260903090403 74 275 6.0 7.0 0.00 0.00 0.00 55 1020.0
20260903085902 74 330 4.0 4.0 0.00 0.00 0.00 58 1020.3
20260903085403 74 311 4.0 5.0 0.00 0.00 0.00 56 1020.3
20260903084903 74 317 4.0 6.0 0.00 0.00 0.00 57 1020.0
20260903084403 73 133 6.0 8.0 0.00 0.00 0.00 57 1020.0
20260903083903 74 295 3.0 3.0 0.00 0.00 0.00 57 1020.0
20260903083402 73 204 4.0 6.0 0.00 0.00 0.00 60 1020.0
20260903082902 73 285 1.0 1.0 0.00 0.00 0.00 59 1020.0
20260903082402 72 344 1.0 5.0 0.00 0.00 0.00 59 1020.3
20260903081902 72 293 4.0 8.0 0.00 0.00 0.00 60 1020.3
20260903081402 72 322 6.0 8.0 0.00 0.00 0.00 57 1020.3
20260903080902 73 334 2.0 2.0 0.00 0.00 0.00 60 1020.3
20260903080403 72 326 2.0 5.0 0.00 0.00 0.00 63 1020.3
20260903075902 71 339 3.0 6.0 0.00 0.00 0.00 59 1020.3
20260903075403 73 297 1.0 2.0 0.00 0.00 0.00 64 1020.3
20260903074903 73 325 1.0 3.0 0.00 0.00 0.00 62 1020.0
20260903074402 72 322 1.0 2.0 0.00 0.00 0.00 61 1020.0
20260903073903 73 323 1.0 1.0 0.00 0.00 0.00 59 1020.0
20260903073403 71 341 1.0 1.0 0.00 0.00 0.00 61 1020.0
20260903072903 72 326 0.0 1.0 0.00 0.00 0.00 62 1020.0
20260903072403 71 275 2.0 3.0 0.00 0.00 0.00 63 1020.0
20260903071903 71 318 1.0 1.0 0.00 0.00 0.00 70 1020.0
20260903071403 70 337 1.0 1.0 0.00 0.00 0.00 65 1020.0
20260903070903 69 336 0.0 1.0 0.00 0.00 0.00 67 1020.0
20260903070403 69 292 5.0 6.0 0.00 0.00 0.00 73 1020.0
20260903065903 68 277 2.0 3.0 0.00 0.00 0.00 72 1020.0
20260903065402 67 286 2.0 2.0 0.00 0.00 0.00 75 1020.0
20260903064902 67 190 3.0 4.0 0.00 0.00 0.00 76 1020.0
20260903064402 66 222 3.0 3.0 0.00 0.00 0.00 80 1020.0
20260903063902 65 244 5.0 7.0 0.00 0.00 0.00 79 1020.0
20260903063402 64 270 3.0 5.0 0.00 0.00 0.00 82 1020.0
20260903062902 64 223 4.0 4.0 0.00 0.00 0.00 84 1020.0
20260903062402 65 290 1.0 2.0 0.00 0.00 0.00 83 1020.0
20260903061902 65 333 0.0 0.0 0.00 0.00 0.00 84 1020.0
20260903061402 62 328 0.0 0.0 0.00 0.00 0.00 91 1020.0
20260903060902 60 328 0.0 0.0 0.00 0.00 0.00 96 1020.0
20260903060402 60 327 0.0 0.0 0.00 0.00 0.00 99 1020.0
20260903055902 58 329 0.0 0.0 0.00 0.00 0.00 99 1020.0
20260903055402 58 328 0.0 0.0 0.00 0.00 0.00 99 1020.0
20260903054902 57 329 0.0 0.0 0.00 0.00 0.00 99 1020.0
20260903054402 57 338 1.0 1.0 0.00 0.00 0.00 99 1020.0
20260903053903 57 325 0.0 0.0 0.00 0.00 0.00 99 1020.0
20260903053402 57 325 0.0 0.0 0.00 0.00 0.00 99 1020.0
20260903052902 57 324 0.0 0.0 0.00 0.00 0.00 99 1020.0
20260903052402 57 324 0.0 0.0 0.00 0.00 0.00 99 1020.0
20260903051902 57 324 0.0 0.0 0.00 0.00 0.00 99 1020.0
20260903051402 57 324 0.0 0.0 0.00 0.00 0.00 99 1020.0
20260903050902 57 326 0.0 0.0 0.00 0.00 0.00 99 1020.0
20260903050402 56 330 0.0 0.0 0.00 0.00 0.00 99 1020.0
20260903045902 56 331 0.0 0.0 0.00 0.00 0.00 99 1020.0
20260903045402 56 331 0.0 0.0 0.00 0.00 0.00 99 1020.0
20260903044902 55 331 0.0 0.0 0.00 0.00 0.00 99 1020.0
20260903044402 55 331 0.0 0.0 0.00 0.00 0.00 99 1020.0
20260903043902 55 331 0.0 0.0 0.00 0.00 0.00 99 1020.0
20260903043402 55 331 0.0 0.0 0.00 0.00 0.00 99 1020.0
20260903042902 55 331 0.0 0.0 0.00 0.00 0.00 99 1020.0
20260903042402 56 331 0.0 0.0 0.00 0.00 0.00 99 1020.0
20260903041902 56 331 0.0 0.0 0.05 0.00 0.00 99 1020.0
20260903041402 56 331 0.0 0.0 0.05 0.00 0.00 99 1020.0
20260903040902 56 331 0.0 0.0 0.00 0.00 0.00 99 1020.0
20260903040402 56 324 0.0 0.0 0.00 0.00 0.00 99 1020.0
20260903035902 56 326 0.0 0.0 0.00 0.00 0.00 99 1020.0
20260903035402 56 325 0.0 0.0 0.00 0.00 0.00 99 1020.0
20260903034902 56 324 1.0 1.0 0.00 0.00 0.00 99 1020.0
20260903034402 56 334 0.0 0.0 0.00 0.00 0.00 99 1020.0
20260903033902 56 334 0.0 0.0 0.00 0.00 0.00 99 1020.0
20260903033402 56 334 0.0 1.0 0.00 0.00 0.00 99 1020.0
20260903032902 56 329 0.0 0.0 0.00 0.00 0.00 99 1020.0
20260903032402 56 323 0.0 1.0 0.00 0.00 0.00 99 1020.0
20260903031902 57 308 1.0 1.0 0.00 0.00 0.00 99 1020.0
20260903031402 57 336 0.0 0.0 0.00 0.00 0.00 99 1020.0
20260903030902 57 341 0.0 1.0 0.00 0.00 0.00 99 1020.0